sat.trackr.live / text

‹ back to catalog

STARLINK-5623

NORAD 55405 · 2023-014Q

PAYLOAD ACTIVE UNKNOWN

§ Identity

Operator
Country
US
Launch date
2023-01-31
Launch site
AFWTR
Launch vehicle
Mass (kg)
RCS (m²)

Purposes: comms

External: N2YO · Heavens-Above · Gunter

§ Orbital elements

Epoch: 2026-09-20T11:45:16.082208Z

Period
96.11 min
Inclination
69.9979°
Eccentricity
0.0003575
Mean motion
14.98328143 rev/d
Perigee alt
569.6 km
Apogee alt
574.5 km
Semi-major
6,950.2 km
B*
2.5048e-5
RAAN
293.3347°
Arg perigee
269.4775°
Mean anomaly
90.5975°
Rev number
20,123

§ Raw data

STARLINK-56231 55405U 23014Q   26263.48976947  .00000206  00000+0  25048-4 0  99922 55405  69.9979 293.3347 0003575 269.4775  90.5975 14.98328143201237

JSON: /api/v1/satellites/55405 · /tle

For live sub-satellite position, see the globe view (requires WebGL).

§ Visibility from observer

Set your observer location to see the next 7 days of passes ≥ 10°. The values pass through the URL so the page stays shareable.

No JS? Fill the form by hand. The geolocation button needs JavaScript.